Regional Weather Roundup
Issued by NWS

Home | Current Version | Previous Version | Graphics & Text | Print | Product List | Glossary On
Versions: 1 2 3 4 5 6 7 8 9 10 11 12 13 14 15 16 17 18 19 20 21 22 23 24 25 26 27 28 29 30 31 32 33 34 35 36 37 38 39 40 41 42 43 44 45 46 47 48 49 50
000
ASUS43 KMKX 290400
RWRWI

WISCONSIN REGIONAL WEATHER ROUNDUP
NATIONAL WEATHER SERVICE MILWAUKEE/SULLIVAN WI
1100 PM CDT TUE MAR 28 2017

NOTE: "FAIR" INDICATES FEW OR NO CLOUDS BELOW 12,000 FEET WITH NO
SIGNIFICANT WEATHER AND/OR OBSTRUCTIONS TO VISIBILITY.

WIZ001-002-006>008-014>016-023>028-290500-
NORTHWEST WISCONSIN

CITY           SKY/WX    TMP DP  RH WIND       PRES   REMARKS
SUPERIOR ARPT  CLEAR     36  33  89 E13G18    30.28R WCI  27
ASHLAND        CLEAR     33  30  88 N8        30.27R WCI  26
HAYWARD        CLEAR     37  25  61 N5        30.22S WCI  33
SIREN          PTCLDY    37  24  61 CALM      30.21S
CUMBERLAND     CLEAR     37  27  65 CALM      30.20S
RICE LAKE      CLEAR     37  32  81 CALM      30.22R
CHETEK         CLEAR     37  30  76 CALM      30.21R
LADYSMITH      CLEAR     42  28  55 CALM      30.23S
EAU CLAIRE     NOT AVBL
MENOMONIE      CLEAR     43  33  70 CALM      30.20S
NEW RICHMOND   CLEAR     40  32  74 CALM      30.20S
OSCEOLA        CLEAR     39  31  71 CALM      30.23R
$$

WIZ003>005-009-010-017-018-290500-
NORTH CENTRAL WISCONSIN

CITY           SKY/WX    TMP DP  RH WIND       PRES   REMARKS
MANITOWISH WTR CLEAR     34  27  77 CALM      30.23S
ARBOR VITAE    CLEAR     37  29  74 CALM      30.23R
WOODRUFF       CLEAR     37  29  74 CALM      30.23R
RHINELANDER    CLEAR     37  26  64 E3        30.24R
EAGLE RIVER    CLEAR     32  26  79 CALM      30.24R
LAND O LAKES   CLEAR     31  26  83 CALM      30.26S
PHILLIPS       PTCLDY    41  28  60 CALM      30.22S
TOMAHAWK       CLEAR     34  26  70 CALM      30.23R
MEDFORD        CLEAR     36  32  87 CALM      30.21S
MERRILL        CLEAR     31  27  84 E3        30.23R
$$

WIZ029-030-035-036-043>047-290500-
CENTRAL WISCONSIN

CITY           SKY/WX    TMP DP  RH WIND       PRES   REMARKS
WAUSAU         CLEAR     44  31  60 E5        30.22R
MOSINEE        CLEAR     41  30  65 SE5       30.24R
MARSHFIELD     CLEAR     44  31  60 SE3       30.21R
STEVENS POINT  CLEAR     34  31  86 NE3       30.23S
WAUPACA        CLEAR     40  31  70 CALM      30.25R
WAUTOMA        CLEAR     34  31  88 CALM      30.24F
WISC RAPIDS    CLEAR     41  31  67 SE6       30.23S
CAMP DOUGLAS   NOT AVBL
$$

WIZ011>013-019>022-031-037>040-048>050-290500-
NORTHEAST WISCONSIN

CITY           SKY/WX    TMP DP  RH WIND       PRES   REMARKS
ANTIGO         CLEAR     39  30  71 SE5       30.25R
SHAWANO        CLEAR     37  32  84 CALM      30.27R
OCONTO         CLEAR     30  29  95 CALM      30.27R
STURGEON BAY   CLEAR     32  31  96 NW5       30.25R WCI  27
GREEN BAY      CLEAR     35  34  96 N6        30.26R WCI  30
MANITOWOC      NOT AVBL
APPLETON       PTCLDY    39  36  87 VRB3      30.23R
CLINTONVILLE   CLEAR     36  30  80 CALM      30.25R
OSHKOSH        CLEAR     40  35  83 CALM      30.23S
$$

WIZ032>034-041-042-053>061-290500-
SOUTHWEST WISCONSIN

CITY           SKY/WX    TMP DP  RH WIND       PRES   REMARKS
LA CROSSE      CLOUDY    45  40  82 CALM      30.20R
SPARTA         CLOUDY    36  32  88 E3        30.22S
VIROQUA        CLOUDY    45  35  69 CALM      30.20S
BOSCOBEL       CLOUDY    38  35  89 CALM      30.21R
PRAIRIE DU CHI CLOUDY    42  37  84 CALM      30.19R
PLATTEVILLE    CLOUDY    42  41  97 N5        30.19S
$$

WIZ056-057-062-063-064-067-068-290500-
SOUTH CENTRAL WISCONSIN

CITY           SKY/WX    TMP DP  RH WIND       PRES   REMARKS
REEDSBURG      CLEAR     44  32  62 CALM      30.21S
BARABOO/DELLS  CLEAR     43  32  65 E6        30.22R
LONE ROCK      NOT AVBL
MINERAL POINT  CLOUDY    45  37  76 E6        30.19S
MADISON        CLEAR     40  36  86 SE5       30.22R
MIDDLETON      CLEAR     44  39  81 E3        30.22S
WATERTOWN      CLEAR     35  35 100 E5        30.23S WCI  31
MONROE         CLEAR     43  36  75 NE7       30.20S
JANESVILLE     CLEAR     37  36  93 E5        30.21S WCI  34
$$

WIZ051-052-058>065-066-070>072-290500-
SOUTHEAST WISCONSIN

CITY           SKY/WX    TMP DP  RH WIND       PRES   REMARKS
MILWAUKEE      FOG       34  33  96 N6        30.25S VSB 1/4 WCI  29
WAUKESHA       FOG       32  32 100 NE5       30.25S VSB 1/4 WCI  27
MILWAUKEE/TIMM FOG       32  32 100 CALM      30.26S VSB 1/2
RACINE         FOG       34  33  96 N6        30.26S VSB 1/4 WCI  29
KENOSHA        FOG       35  34  96 NE8       30.24S VSB 1/4 WCI  29
FOND DU LAC    CLEAR     38  33  82 CALM      30.24R
SHEBOYGAN      FOG       32  31  96 SW3       30.25R VSB 1/4
WEST BEND      CLOUDY    34  34 100 CALM      30.25R FOG
JUNEAU         CLEAR     39  35  87 CALM      30.25R
$$

LSZ147-162-290500-
LAKE SUPERIOR

STATION/POSITION TIME  TEMP    WIND        PRES    WAVE
                       AIR SEA DIR/SP/G            HT/PER
                 (UTC) (F)     (DEG/KT/KT) (MB)    (FT/S)
DEVILS ISLAND    0300   35      40/ 12/ 13 1026.2R
PORT WING        0330   35      40/ 15/ 17 1025.1S
SAXON HARBOR     0340   31     200/  3/  3 1024.4R
$$

LMZ867-665-643>646-290500-
LAKE MICHIGAN

STATION/POSITION TIME  TEMP    WIND        PRES    WAVE
                       AIR SEA DIR/SP/G            HT/PER
                 (UTC) (F)     (DEG/KT/KT) (MB)    (FT/S)
CHAMBERS ISLAND  0340   31     350/  2/  4 1024.7R
NORTHPORT PIER   0340   32     300/  3/  6 1025.4R
SISTER BAY       0236   32     330/  3/  4   N/A
KEWAUNEE LAKESHO 0330   31      CALM  /  1 1023.8R
SHEBOYGAN LAKESH 0300   31     360/  4/  5 1024.7R
PORT WASHINGTON  0340   34     330/  2/  3 1025.7R
MILWAUKEE LAKESH 0330   33      30/  4/  6   N/A
KENOSHA   LAKESH 0300   35      30/ 12/ 13 1024.0
$$

TC  - TEMPERATURE IN CELSIUS
VSB - VISIBILITY IN STATUTE MILES
WCI - WIND CHILL INDEX
HX  - HEAT INDEX




USA.gov is the U.S. government's official web portal to all federal, state and local government web resources and services.